Content
SEND FEEDBACK

Daily
Averages
Monthly
Summary
Canada

MONTREAL, QUEBEC


Home > North America > Canada > Quebec
Elevation: 118 feet     Latitude: 45 28N     Longitude: 073 45W

WEATHER
 
SELECT A DAY
Number of Records: 198,773;   Date Range: 1/1/95 - 9/17/14
 
SHARE

PRINT THIS DATA

[ ← Previous Day ]
WEATHER ALMANAC - APRIL 3, 2013
[ Next Day → ]
[ °C ]   °F
Weather ElementAverageHighLow
Temperature29.4 °F35.6 °F (4:00 pm)23 °F (7:00 am)
Dewpoint10.4 °F15.8 °F (6:00 pm)5 °F (4:00 am)
Humidity43.2 %55 % (10:00 pm)27 % (2:00 am)
Barometer29.99 in30.17 in (11:00 pm)29.88 in (1:00 am)
Wind Speed20.3 mph31.1 mph (1:00 pm)
Wind Gust42.6 mph (2:00 pm)
Weather ElementAverage
Visibility24.2 mi
Wind DirectionW (267.8 °)

Weather ElementTotal
Precipitation---
Heating Degree Days35.7 (Base 65)
Averaged from 27 records on April 3, 2013
WEATHER CONDITIONS BREAKOUT
WIND DIRECTION BREAKOUT
WEATHER BY HOUR - APRIL 3, 2013
[ °C ]   °F
Local TimeTemperatureDewpointHumidityBarometerVisibilityWind DirectionWind SpeedGust SpeedPrecipitationEventsConditions
1:00 AM28.4 °F8.6 °F43 %29.88 in15.0 miWest (280°)16.1 mph26.5 mphMostly Cloudy
2:00 AM27.0 °F6.0 °F27 %29.89 in15.0 miWest (280°)17.3 mphScattered Clouds
2:00 AM26.6 °F6.8 °F43 %29.89 in15.0 miWest (280°)16.1 mph28.8 mphMostly Cloudy
3:00 AM26.6 °F6.8 °F43 %29.89 in15.0 miWest (280°)13.8 mph19.6 mphMostly Cloudy
4:00 AM24.8 °F5.0 °F43 %29.89 in15.0 miWest (270°)23.0 mph28.8 mphMostly Cloudy
5:00 AM24.8 °F6.8 °F46 %29.90 in15.0 miWest (280°)16.1 mph24.2 mphOvercast
6:00 AM24.8 °F6.8 °F46 %29.91 in15.0 miWest (270°)18.4 mph28.8 mphOvercast
7:00 AM23.0 °F8.6 °F54 %29.94 in30.0 miWest (270°)21.9 mph28.8 mphOvercast
8:00 AM24.0 °F7.0 °F34 %29.96 in28.0 miWest (270°)23.0 mphPartly Cloudy
8:00 AM23.0 °F6.8 °F50 %29.96 in30.0 miWest (270°)24.2 mph33.4 mphMostly Cloudy
9:00 AM24.8 °F8.6 °F50 %29.96 in30.0 miWest (260°)23.0 mph36.8 mphOvercast
10:00 AM26.6 °F8.6 °F47 %29.98 in30.0 miWest (260°)24.2 mph35.7 mphOvercast
11:00 AM26.6 °F8.6 °F47 %29.98 in30.0 miWest (270°)28.8 mph35.7 mphMostly Cloudy
12:00 PM30.2 °F10.4 °F44 %29.98 in30.0 miWest (260°)25.3 mph39.1 mphPartly Cloudy
1:00 PM32.0 °F10.4 °F41 %29.98 in30.0 miWSW (250°)31.1 mph39.1 mphScattered Clouds
2:00 PM33.0 °F12.0 °F28 %29.98 in28.0 miWest (260°)28.8 mphScattered Clouds
2:00 PM33.8 °F12.2 °F41 %29.98 in30.0 miWest (260°)25.3 mph42.6 mphPartly Cloudy
3:00 PM33.8 °F12.2 °F41 %30.00 in30.0 miWest (260°)25.3 mph34.5 mphMostly Cloudy
4:00 PM35.6 °F12.2 °F38 %30.01 in30.0 miWest (270°)26.5 mph38.0 mphOvercast
5:00 PM35.6 °F12.2 °F38 %30.02 in30.0 miWest (260°)24.2 mph35.7 mphOvercast
6:00 PM35.6 °F15.8 °F44 %30.05 in30.0 miWest (270°)19.6 mph26.5 mphOvercast
7:00 PM33.8 °F14.0 °F44 %30.08 in30.0 miWNW (290°)19.6 mph29.9 mphScattered Clouds
8:00 PM33.0 °F14.0 °F32 %30.13 in28.0 miWest (270°)11.5 mphScattered Clouds
8:00 PM33.8 °F14.0 °F44 %30.13 in30.0 miWest (270°)10.4 mph18.4 mphPartly Cloudy
9:00 PM32.0 °F14.0 °F48 %30.15 in15.0 miWest (270°)11.5 mph18.4 mphClear
10:00 PM30.2 °F15.8 °F55 %30.16 in15.0 miWSW (250°)12.7 mphClear
11:00 PM30.2 °F15.8 °F55 %30.17 in15.0 miWSW (250°)11.5 mphClear
Hourly data recorded from CYUL, located miles away from Montreal, Quebec







STORIES FROM OUR PARTNERS